STARLINK-34505

导读 | 豆包AI

STARLINK-34505是美国SpaceX星链计划中的一颗卫星,于2025年6月23日发射升空,属于星链星座组网的组成部分。星链系统旨在通过大规模低轨卫星星座,为全球提供高速互联网接入服务,该卫星入轨后将进一步扩充星链网络的覆盖范围与服务能力。

基本信息
目录编号:
64490
目录名称:
STARLINK-34505
国际标识:
2025-133U
轨道中心:
EARTH
卫星名称:
STARLINK-34505
卫星全名:
STARLINK-34505
卫星状态:
在轨 (已飞行310 天)
发射日期:
2025-06-23 UTC
国别 :
美国 (US)
星等 :
--
轨道信息
数据来源 国际轨道数据
星历时间: 2026-04-29T02:17:23+0800
20小时前
查看轨道信息
半长轴: 6853.34km
偏心率: 0.0001303
轨道倾角: 53.159°
近地点辐角 85.430°
升交点赤经 244.288°
平近点角 274.685°
近地点: 474.31km
远地点: 476.096km
周期: 94.105分钟
每日圈数: 15.302043
详细信息
使用方式:
暂无
2D轨道图
3D轨道图
轨道高度分析图
轨道倾角分析图
轨道综合分析图
查看轨道综合分析图